Flag for Germany Weather past 2 weeks in Kehl, Baden-Württemberg, Germany

Now
79 °F

Mostly cloudy.


Feels Like: 81 °F
Forecast: 61 / 67 °F
Wind: 2 mph from North

Location: Strasbourg Airport

Current Time: Jul 28, 2014 at 4:23:25 PM

Latest Report: Jul 28, 2014 at 4:00 PM


Visibility: N/A

Pressure: 29.80 "Hg

Humidity: 61%

Dew point: 64 °F

Location of KehlLocation

Historic Weather in Kehl — Graph

°F

Kehl temperature yesterday

Maximum temperature yesterday: 82 °F (at 2:30 PM)
Minimum temperature yesterday: 59 °F (at 6:00 AM)
Average temperature yesterday: 71 °F

Past Weeks' High & Low Weather Summary

 TemperatureHumidityPressure
High93 °F (Jul 19, 5:30 PM)100% (Jul 14, 5:30 AM)30.18 "Hg (Jul 14, 5:30 AM)
Low32 °F (Jul 26, 8:30 AM)29% (Jul 18, 4:00 PM)29.80 "Hg (Jul 19, 11:30 PM)
Average71 °F73%29.97 "Hg
* Reported Jul 13 3:00 PM — Jul 28 3:30 PM, Kehl, Weather by CustomWeather, © 2014

Note: Actual official high and low records may vary slightly from our data, if they occured in-between our weather recording intervals... More about our weather records

Advertising

Kehl weather history for previous 24 hours

 ConditionsComfort  
Time TempWeatherWind HumidityBarometerVisibility
3:30 PM
Jul 28
79 °FWarm.3 mph61%29.80 "HgN/A
3:00 PM79 °FClear.3 mph65%29.83 "HgN/A
2:30 PM79 °FWarm.2 mph58%29.83 "HgN/A
2:00 PM77 °FWarm.2 mph61%29.83 "HgN/A
1:30 PM77 °FWarm.No wind69%29.86 "HgN/A
1:00 PM75 °FClear.2 mph74%29.86 "HgN/A
12:30 PM73 °FBroken clouds.3 mph78%29.86 "HgN/A
12:00 PM72 °FRain. More clouds than sun.5 mph78%29.86 "Hg4 mi
11:30 AM73 °FOvercast.3 mph69%29.89 "HgN/A
11:00 AM73 °FClear.6 mph69%29.89 "HgN/A
10:30 AM72 °FMild.3 mph73%29.89 "HgN/A
10:00 AM72 °FClear.2 mph73%29.89 "HgN/A
9:30 AM70 °FClear.No wind78%29.89 "HgN/A
9:00 AM68 °FClear.No wind83%29.89 "HgN/A
8:30 AM68 °FClear.3 mph88%29.89 "HgN/A
8:00 AM66 °FClear.2 mph88%29.89 "HgN/A
7:30 AM64 °FClear.No wind94%29.92 "HgN/A
7:00 AM64 °FClear.2 mph94%29.92 "HgN/A
6:30 AM63 °FClear.No wind94%29.92 "HgN/A
6:00 AM63 °FClear.No wind94%29.92 "HgN/A
5:30 AM63 °FClear.2 mph94%29.92 "HgN/A
5:00 AM64 °FClear.2 mph88%29.92 "HgN/A
4:30 AM64 °FClear.2 mph88%29.92 "HgN/A
4:00 AM64 °FPassing clouds.1 mph94%29.92 "HgN/A
3:30 AM66 °FPassing clouds.3 mph88%29.92 "HgN/A
3:00 AM66 °FPassing clouds.3 mph88%29.95 "HgN/A
2:30 AM66 °FOvercast.2 mph88%29.95 "HgN/A
2:00 AM68 °FOvercast.3 mph88%29.95 "HgN/A
1:30 AM68 °FMostly cloudy.3 mph88%29.95 "HgN/A
1:00 AM68 °FOvercast.1 mph88%29.98 "HgN/A
12:30 AM70 °FOvercast.1 mph83%29.98 "HgN/A
12:00 AM70 °FClear.2 mph83%29.98 "HgN/A
11:30 PM
Jul 27
70 °FClear.3 mph83%29.98 "HgN/A
11:00 PM72 °FClear.3 mph78%29.98 "HgN/A
10:30 PM72 °FClear.2 mph78%29.98 "HgN/A
10:00 PM73 °FLight rain. Clear.2 mph74%29.98 "HgN/A
9:30 PM73 °FRain. Clear.3 mph74%29.98 "HgN/A
9:00 PM73 °FClear.5 mph74%29.98 "HgN/A
8:30 PM75 °FClear.3 mph65%29.98 "HgN/A
8:00 PM75 °FPartly sunny.3 mph65%29.98 "HgN/A
7:30 PM77 °FClear.3 mph65%29.98 "HgN/A
7:00 PM77 °FClear.7 mph65%29.98 "HgN/A
6:30 PM79 °FClear.7 mph58%29.98 "HgN/A
6:00 PM79 °FPartly sunny.8 mph58%29.98 "HgN/A
5:30 PM81 °FPartly sunny.2 mph54%29.98 "HgN/A
5:00 PM81 °FClear.3 mph54%29.98 "HgN/A
4:30 PM81 °FClear.7 mph54%29.98 "HgN/A
4:00 PM79 °FPartly sunny.5 mph58%29.98 "HgN/A
Weather by CustomWeather, © 2014

See weather overviewHow to use our weather pages